Location: B�rgermoos
(47.6500°N, 9.0667°E)
Time: 09:29:01
(UTC+00:00)

Cosmos 1844 Rocket - Pass Details

Date: 18 September 2020
Orbit: 823 x 846 km, 71.0° (Epoch: 27 October)

Event Time Altitude Azimuth Distance (km) Brightness Sun altitude
Rises 17:57:07 0° 148° (SSE) 3,346 5.4 -5.5°
Reaches altitude 10° 18:00:56 10° 122° (ESE) 2,422 4.5 -6.2°
Maximum altitude 18:03:19 13° 96° (E) 2,223 4.2 -6.6°
Drops below altitude 10° 18:05:43 10° 70° (ENE) 2,434 4.6 -7.0°
Sets 18:09:34 0° 44° (NE) 3,378 5.5 -7.6°
